Vorticity
nan nan nan nan nan nan nan nan nan nan nan nan nan nan nan nan nan nan nan nan nan nan nan nan nan nan nan nan nan nan nan nan nan nan nan nan nan nan nan nan nan nan nan nan
nan 11 8 8 8 8 5 4 8 9 12 10 15 18 15 7 4 8 11 10 7 4 6 12 10 9 8 7 6 7 5 4 4 6 8 9 9 9 9 10 10 9 8 nan
nan 7 10 7 5 11 8 10 8 6 6 9 10 10 8 6 5 5 8 10 11 9 6 8 9 7 8 7 7 7 7 4 5 5 5 8 8 9 9 10 10 10 9 nan
nan 10 10 7 8 9 6 13 6 8 8 9 5 9 9 10 8 8 10 9 10 10 5 8 11 8 8 6 6 6 7 5 6 7 6 7 7 7 8 8 9 10 9 nan
nan 11 12 9 9 6 8 12 11 10 7 9 6 12 14 14 8 12 10 9 7 9 9 8 11 8 6 8 7 7 7 5 7 8 5 5 7 8 9 9 9 9 9 nan
nan 10 11 11 13 7 11 8 6 12 11 7 11 7 9 13 11 9 11 11 7 7 8 8 12 10 8 7 7 8 8 6 6 7 7 7 5 6 6 8 9 9 9 nan
nan 9 7 11 12 9 11 8 8 7 12 10 8 8 15 7 12 15 15 10 7 7 8 9 10 9 9 8 6 7 8 6 6 7 6 8 7 6 7 7 9 8 7 nan
nan 4 7 11 16 10 9 11 8 11 7 9 9 5 10 10 19 20 15 11 13 12 8 9 9 11 9 8 7 7 8 6 7 6 5 6 8 7 9 9 8 8 9 nan
nan 7 8 10 10 12 11 8 12 7 9 13 6 9 3 1 10 27 25 18 11 8 11 9 8 11 9 10 9 7 6 8 8 6 6 6 6 8 9 8 7 8 8 nan
nan 9 6 7 6 11 15 8 8 10 15 5 9 10 -0 2 5 11 20 21 14 12 10 12 11 11 10 11 9 8 9 8 7 7 5 7 7 6 8 9 9 8 8 nan
nan 9 11 10 4 9 12 14 14 14 8 11 7 -1 8 10 6 7 11 18 25 17 11 11 9 12 13 10 10 10 9 9 8 7 8 7 6 7 8 8 8 9 9 nan
nan 10 9 7 10 12 9 10 12 7 8 12 13 4 -1 9 11 7 9 13 22 22 14 14 13 12 18 16 13 11 8 8 8 9 8 8 7 6 5 7 8 10 9 nan
nan 10 9 6 10 7 5 11 14 10 11 8 9 3 -1 7 11 8 7 16 27 23 13 12 15 11 10 13 16 16 12 10 10 10 9 8 8 8 6 5 7 8 9 nan
nan 13 14 11 8 6 3 10 12 11 8 12 5 2 0 6 10 10 8 13 20 18 16 13 11 11 5 8 12 12 15 15 11 9 10 8 9 8 8 7 7 9 8 nan
nan 9 10 10 9 11 7 4 9 10 10 8 5 7 7 5 9 13 9 8 9 10 10 11 14 14 14 13 9 10 12 15 14 9 9 10 8 9 9 9 7 6 9 nan
nan 13 6 5 8 10 15 12 12 7 7 7 12 7 7 6 5 8 12 10 8 8 8 10 10 10 13 16 17 14 10 14 21 11 7 8 11 11 9 10 11 6 7 nan
nan 11 9 8 8 8 9 12 14 13 12 16 11 6 7 6 6 8 8 8 8 8 8 9 9 10 8 10 14 12 10 11 16 18 13 9 9 11 11 10 10 10 8 nan
nan 9 11 10 9 13 8 9 12 9 5 12 10 7 8 10 5 3 9 6 7 9 9 8 9 9 8 9 10 13 17 16 13 14 17 17 11 9 9 10 9 9 10 nan
nan 11 12 13 7 7 11 9 9 9 7 8 8 6 7 15 16 2 -0 8 10 8 9 8 7 9 9 9 10 13 16 18 14 11 11 16 16 13 10 9 9 9 10 nan
nan 11 12 9 10 9 8 2 7 15 11 7 7 7 7 15 18 1 -2 11 11 9 10 8 9 9 9 9 12 12 10 11 8 11 10 10 18 17 12 10 9 10 11 nan
nan 12 11 10 7 5 10 11 18 13 7 5 6 8 9 11 5 -0 6 10 12 8 8 10 10 10 9 8 12 10 9 7 8 9 11 12 11 10 13 16 14 10 8 nan
nan 9 9 9 8 11 8 15 14 9 9 7 8 7 8 5 5 7 9 8 8 10 9 9 11 10 9 10 8 8 9 8 11 11 13 13 11 12 11 13 16 13 12 nan
nan 12 11 10 6 9 8 9 8 11 9 6 5 6 8 8 8 8 10 12 8 9 9 11 10 9 10 10 7 9 7 9 11 12 12 13 13 11 13 15 16 16 12 nan
nan 12 7 8 13 7 8 13 9 6 6 4 7 10 10 10 11 13 9 10 11 9 9 10 9 11 7 8 10 10 7 10 10 10 11 13 12 13 13 16 17 13 10 nan
nan 9 8 4 9 13 14 12 7 6 8 11 10 9 11 11 11 12 12 11 9 10 11 10 10 9 9 7 8 14 10 7 12 14 13 11 10 11 14 16 15 15 12 nan
nan nan nan nan nan nan nan nan nan nan nan nan nan nan nan nan nan nan nan nan nan nan nan nan nan nan nan nan nan nan nan nan nan nan nan nan nan nan nan nan nan nan nan nan
CAPE
0 0 0 0 0 0 0 0 0 0 0 0 176 281 263 282 205 262 122 68 39 38 14 0 0 1 20 4 62 23 87 0 110 64 134 137 224 334 577 495 624 660 543 334
0 0 0 0 0 0 0 0 0 0 0 11 223 309 191 442 252 424 273 87 46 35 21 0 0 4 0 18 0 80 13 0 80 85 127 138 178 193 363 397 675 716 560 124
0 0 0 0 0 0 0 0 0 0 0 156 124 310 286 229 277 356 425 289 89 10 30 0 0 0 0 0 0 55 10 0 26 49 77 108 194 167 398 318 722 895 669 0
0 0 0 0 0 0 0 0 0 0 0 0 28 98 105 17 85 268 492 441 244 44 43 0 0 0 0 0 0 0 20 0 19 35 107 200 231 281 263 275 268 819 1065 320
0 0 0 0 0 0 0 0 0 0 0 0 0 0 0 4 39 268 501 479 369 222 78 54 0 1 0 0 0 0 3 5 51 22 59 111 217 170 104 176 169 475 854 777
0 0 0 0 0 0 0 0 0 0 0 0 0 0 0 21 89 110 425 496 443 101 128 50 0 0 0 0 0 0 0 2 38 0 0 103 104 99 127 163 273 406 552 895
0 0 0 0 0 0 0 0 0 0 0 0 0 0 0 4 30 46 149 393 497 170 115 107 11 0 0 0 0 0 0 0 67 40 0 4 70 48 71 142 273 515 717 815
0 0 0 0 0 0 0 0 0 0 0 0 0 0 0 0 0 0 33 124 304 255 201 130 84 0 0 0 0 54 0 11 49 102 55 0 0 18 21 151 236 525 745 882
0 0 0 0 0 0 0 0 0 0 0 0 0 0 0 0 0 0 7 33 384 353 196 168 159 0 0 0 0 60 93 2 41 79 71 64 0 0 0 97 200 443 494 913
0 0 0 0 0 0 0 0 0 0 0 0 0 0 0 0 0 0 0 0 84 303 80 73 170 20 3 0 9 0 142 108 21 63 63 97 112 46 0 0 313 420 442 425
0 0 0 0 0 0 0 0 0 0 0 0 0 0 0 0 0 0 15 0 0 123 97 90 119 52 10 10 0 6 27 101 119 68 43 26 54 103 76 0 20 113 454 381
0 0 0 0 0 0 0 0 0 0 0 0 0 0 0 0 0 0 11 13 0 86 122 122 178 138 2 14 9 28 43 72 95 124 67 3 0 0 90 62 0 0 60 193
0 0 0 0 0 0 0 0 0 0 0 0 0 0 0 0 0 0 6 45 27 67 208 193 130 69 15 0 0 28 5 56 128 155 123 27 0 0 0 71 100 0 0 46
0 0 0 0 0 0 0 0 0 0 0 0 0 0 0 0 0 0 0 29 65 92 41 10 0 0 2 0 0 1 20 29 61 165 238 151 21 0 0 0 22 101 0 28
0 0 0 0 0 0 0 0 0 0 0 0 0 0 0 0 0 0 0 10 42 1 0 16 11 44 41 3 0 0 17 42 154 77 218 236 205 21 0 0 0 0 26 4
0 0 0 0 0 0 0 0 0 0 0 0 0 0 0 0 0 0 0 0 0 9 11 2 1 30 282 227 74 22 101 155 257 250 198 246 262 264 25 0 0 0 0 17
0 0 0 0 0 0 0 0 0 0 0 0 0 0 0 0 0 0 0 0 0 0 3 1 4 4 21 14 13 29 24 46 83 459 374 355 237 351 420 146 0 0 0 0
0 0 0 0 0 0 0 0 0 0 0 0 0 0 0 0 0 0 0 0 0 0 0 0 0 0 4 5 4 2 84 54 125 196 437 641 622 342 496 595 301 0 0 0
0 0 0 0 0 0 0 0 0 0 0 0 0 0 0 0 0 0 0 0 0 0 0 0 0 0 0 0 0 3 34 97 77 86 155 387 923 938 649 686 707 619 175 3
0 0 0 0 0 0 0 0 0 0 0 0 0 0 0 0 21 2 0 0 0 0 0 0 0 0 0 0 0 1 2 4 2 4 49 120 357 1223 1399 1071 852 839 792 571
0 0 0 0 0 0 0 0 0 0 0 0 0 0 0 0 0 0 0 0 0 0 0 0 0 0 0 0 0 1 3 3 8 7 6 1 0 118 406 1074 1319 1148 937 975
0 0 0 0 0 0 0 0 0 0 0 0 0 0 0 0 0 0 0 0 0 0 0 0 0 0 0 0 0 0 0 2 7 11 10 7 1 17 259 906 1237 1383 1224 1083
0 0 0 0 0 0 0 1 0 0 0 0 0 0 0 0 1 0 0 0 0 0 0 0 0 0 0 0 0 0 0 2 5 7 0 3 4 3 54 731 1246 1367 1334 1383
0 0 0 0 0 0 0 0 0 0 0 0 0 0 5 6 6 5 0 0 0 0 0 0 0 0 0 0 0 0 0 2 2 7 2 1 3 2 46 484 1261 1318 1348 1402
0 0 0 0 0 0 0 0 1 3 4 5 6 4 4 6 5 7 2 0 0 0 0 0 2 0 0 0 0 0 0 1 1 3 0 0 6 3 4 37 1295 1368 1398 1463
0 0 0 0 0 0 0 0 0 1 14 18 6 13 11 14 21 26 12 8 0 0 0 0 10 1 0 0 0 0 0 0 1 1 0 1 3 2 3 9 968 1 170 1054